Tracking 17142 objects as of 27-May-2015
HD Live streaming from Space Station

GORIZONT 30

Track GORIZONT 30 now!
GORIZONT 30 is classified as:


NORAD ID: 23108
Int'l Code: 1994-030A
Perigee: 35,774.0 km
Apogee: 35,816.8 km
Inclination: 14.2 °
Period: 1,436.2 minutes
Semi major axis: 42166 km
RCS: 12.5892 m2 (large)
Launch date: May 20, 1994
Source: Commonwealth of Independent States (former USSR) (CIS)
Your satellite tracking list
Your tracking list is empty





NASA's NSSDC Master Catalog

Two Line Element Set (TLE):
1 23108U 94030A   15146.10785653 -.00000133  00000-0  00000+0 0  9999
2 23108 014.1644 024.7537 0005075 152.3095 091.8589 01.00265714 76971

Source of the keplerian elements: AFSPC

N2YO: 359